www.pogodaiklimat.ru

Погода и климат >> Архив погоды >> Россия >> Иркутская область >> Тырка


ПОГОДА в Тырке

  • Прогноз погоды в Тырке
  • Монитор погоды в Тырке

АРХИВ ПОГОДЫ в Тырке

Время (UTC), дата Ветер
(напр.,м/с)
 
Видим.   Явления Облачность Т
(С)
Тd
(С)
f
(%)
Тe
(С)
Тes
(С)
Комфортность P
(гПа)
Po
(гПа)
Тmin
(С)
Tmax
(С)
R
(мм)
R24
(мм)
S
(см)
00 17.01 штиль 0 50 км слаб. ливневой снег ?/? -18.2 -20.1 85 -18 -18 1026.7 941.6 -29.0 1 29
03 17.01 СЗ 1 10 км в посл. час ливневой снег 9/5 600 м
[Cb cap Ac trans Ci fib]
-16.5 -18.4 85 -19 -19 1027.5 942.9
06 17.01 В 1 20 км слаб. ливневой снег 8/3 600 м
[Cb cap Ac lent Ci fib]
-12.2 -14.9 80 -14 -14 1026.0 942.9
09 17.01 З 2 н/о осадки на расстоянии {ливн. осадки} 10/10 600 м
[Cb cap]
-11.2 -14.8 75 -16 -16 1026.8 943.9
12 17.01 штиль 0 н/о в посл. час ливневой снег 10/5 600 м
[Cb cap Cs]
-15.0 -17.0 85 -15 -15 1029.6 945.4 -10.0 0.6
15 17.01 В 1 н/о слаб. ливневой снег 8/5 600 м
[Cb cap Ci ing]
-15.6 -16.9 90 -18 -18 1030.8 946.3
18 17.01 штиль 0 н/о слаб. ливневой снег 10/8 600 м
[Cb cap Ci]
-17.7 -18.9 90 -18 -18 1032.4 947.0
21 17.01 штиль 0 н/о слаб. ливневой снег 10/10 600 м
[Cb cap]
-17.3 -19.2 85 -17 -17 1032.4 947.2
00 18.01 ЮВ 1 н/о слаб. ливневой снег 10/10 600 м
[Cb cap]
-15.9 -17.8 85 -19 -19 1032.9 948.0 -19.0 1 30
03 18.01 З 1 20 км слаб. ливневой снег 10/5 600 м
[Cb cap Cs]
-15.2 -17.2 85 -18 -17 1033.9 949.2
06 18.01 З 2 4000 м осадки на расстоянии {ливн. осадки} 10/6 600 м
[Cb cap Ac trans Cs]
-11.2 -14.8 75 -16 -15 1032.6 949.3
09 18.01 З 3 н/о 8/5 600 м
[Cb cap Ac lent Ci ing]
-11.8 -16.2 70 -18 -18 1033.6 950.0
12 18.01 З 1 н/о 8/0
[Ac trans Ci fib]
-16.2 -18.8 80 -19 -19 1037.1 951.7 -11.1 0.3
15 18.01 штиль 0 н/о 3/0
[Ci fib]
-21.0 -23.5 80 -21 -21 1040.1 953.0
18 18.01 штиль 0 н/о 3/0
[Ci fib]
-28.6 -31.0 80 -29 -29 1044.3 954.3
21 18.01 штиль 0 н/о 10/0
[Ac trans Ci]
-27.8 -31.0 74 -28 -28 1043.9 954.2
00 19.01 ЮВ 1 н/о 10/6 600 м
[Cb cap Ac trans Ci]
-25.5 -28.0 79 -29 -29 1043.5 954.6 -30.0 30
03 19.01 штиль 0 20 км осадки на расстоянии 8/3 600 м
[Cb calv Ac inh Ci ing]
-25.2 -27.7 80 -25 -25 1043.5 954.7
06 19.01 Ю 1 20 км осадки на расстоянии 8/3 600 м
[Cb cap Ac lent Ci fib]
-14.5 -18.0 75 -17 -16 1037.3 952.5
09 19.01 З 1 н/о 8/0
[Ac As Ci fib]
-14.2 -17.7 75 -17 -17 1035.4 950.9
12 19.01 штиль 0 н/о 10/0
[As op]
-17.5 -19.4 85 -18 -18 1034.7 949.2 -13.0
15 19.01 штиль 0 н/о 10/0
[Ac trans Cs]
-21.5 -23.3 85 -22 -22 1033.2 946.5
18 19.01 штиль 0 н/о 10/4 600 м
[Cb cap Ac trans Cs]
-20.6 -22.5 85 -21 -21 1030.2 944.0
21 19.01 штиль 0 н/о 9/0
[Ac As]
-18.4 -20.3 85 -18 -18 1027.5 942.3
00 20.01 штиль 0 н/о 10/0
[As op]
-17.8 -19.7 85 -18 -18 1026.9 941.9 -21.5 30
03 20.01 З 1 20 км 9/9 600 м
[Cb cap]
-14.2 -16.2 85 -17 -17 1025.6 941.9
06 20.01 СЗ 1 20 км 9/5 600 м
[Sc diur, vesp Ci fib]
-10.3 -13.9 75 -13 -12 1025.3 942.8
09 20.01 ЮЗ 1 н/о 9/3 600 м
[Sc Ci fib]
-8.7 -12.0 77 -11 -11 1023.8 941.9
12 20.01 штиль 0 н/о 9/3 600 м
[Sc Ci fib]
-15.3 -13.7 100 -15 -15 1023.7 941.1 -8.0
15 20.01 штиль 0 н/о 10/3 600 м
[Sc Cs]
-11.6 -13.6 85 -12 -12 1022.5 939.8
18 20.01 штиль 0 н/о 10/0
[Ac trans Cs]
-12.6 -13.9 90 -13 -13 1020.9 938.1
21 20.01 штиль 0 н/о 10/10 600 м
[Cb cap]
-9.6 -13.2 75 -10 -10 1017.6 936.5
00 21.01 С 1 н/о 10/10 600 м
[Cb cap]
-8.9 -12.3 76 -11 -11 1017.6 936.1 -12.8 29
03 21.01 СВ 1 50 км 10/10 600 м
[Cb cap]
-9.5 -12.1 81 -12 -12 1018.0 936.3
06 21.01 З 4 20 км осадки на расстоянии {ливн. осадки} 10/10 600 м
[Cb cap]
-4.3 -7.3 80 -11 -11 1017.0 937.0
09 21.01 З 4 20 км осадки на расстоянии {ливн. осадки, метель} 10/5 600 м
[Cb cap Ac lent Ci fib]
-5.0 -10.4 66 -11 -11 1018.7 938.3
12 21.01 З 1 н/о слаб. ливневой снег {метель} 10/10 600 м
[Cb cap]
-6.7 -9.5 80 -9 -9 1020.7 939.6 -4.0 0.2
15 21.01 СЗ 1 н/о {ливн. осадки} 9/8 600 м
[Cb cap Ac trans Ci fib]
-8.7 -9.8 92 -11 -11 1022.1 940.4
18 21.01 СЗ 1 н/о {ливн. осадки} 9/9 600 м
[Cb cap]
-12.0 -13.3 90 -14 -14 1024.5 941.5
21 21.01 штиль 0 н/о 8/0
[Ac trans Ci fib]
-15.1 -16.4 90 -15 -15 1026.1 942.1
00 22.01 штиль 0 н/о 3/0
[Ac lent]
-21.0 -22.9 85 -21 -21 1029.0 942.8 -21.3 0.4 29
03 22.01 З 1 50 км 8/3 600 м
[Cb cap Ac trans Ci fib]
-21.6 -24.1 80 -25 -24 1030.4 943.9 -24.0
06 22.01 штиль 0 20 км осадки на расстоянии 8/4 600 м
[Cb cap Ac trans Ci]
-10.6 -14.2 75 -11 -10 1026.3 943.6
09 22.01 штиль 0 50 км 10/3 600 м
[Cb cap Ac trans Cc]
-12.0 -14.0 85 -12 -12 1027.2 944.0
12 22.01 штиль 0 н/о 10/4 600 м
[Cb cap Ac trans Cc]
-15.4 -16.7 90 -15 -15 1028.7 944.4 -9.7
15 22.01 штиль 0 н/о 10/3 600 м
[Cb cap Ac trans Ci fib]
-16.7 -18.6 85 -17 -17 1029.6 944.7
18 22.01 штиль 0 н/о слаб. ливневой снег 10/10 600 м
[Cb cap]
-14.8 -16.8 85 -15 -15 1028.7 944.5
21 22.01 штиль 0 н/о слаб. ливневой снег 10/10 600 м
[Cb cap]
-14.7 -16.0 90 -15 -15 1029.3 945.1
00 23.01 штиль 0 н/о ливневой снег 10/10 600 м
[Cb cap]
-13.4 -14.7 90 -13 -13 1028.9 945.2 -17.7 2 31
03 23.01 штиль 0 10 км слаб. ливневой снег 10/4 600 м
[Cb cap Cs]
-11.1 -12.4 90 -11 -11 1032.2 948.9
06 23.01 СЗ 3 20 км осадки на расстоянии {ливн. осадки} 8/4 600 м
[Cb cap Ci fib]
-7.8 -13.4 64 -13 -13 1032.7 950.4
09 23.01 СЗ 1 50 км 8/3 600 м
[Cb cap Ac trans Ci fib]
-8.9 -13.3 70 -11 -11 1035.9 952.9
12 23.01 СВ 1 н/о 3/0
[Ci fib]
-17.0 -18.2 90 -20 -20 1041.2 955.3 -7.1 0.5
15 23.01 штиль 0 н/о ясно -23.6 -26.2 79 -24 -24 1044.9 956.5
18 23.01 ЮВ 1 н/о ясно -24.6 -27.2 79 -28 -28 1046.2 957.4
21 23.01 З 1 н/о ясно -28.3 -30.7 80 -32 -32 опасность
обморожения
1048.2 957.9

 

Местоположение метеостанции Тырка (Иркутская область, Россия): широта 54.48 долгота 107.00 высота над уровнем моря 651 м.

В архиве по умолчанию представлена погода в Тырке за последнюю неделю. Архивные данные за месяц целиком и за предыдущие месяцы, начиная с января 2011 года, Вы можете получить, выбрав интересующий диапазон дат из раскрывающегося списка и нажав кнопку "Ввод!".


*Определитесь, кто Вы:
робот инопланетянин человек

Внимание! Время в таблицах - всемирное. Для получения местного времени необходимо прибавить поправку, которая равна 8 ч.

Смотрите также архив погоды в соседних городах и на ближайших метеорологических станциях:

Погода в Караме (Иркутская область, Россия) (84 км)
Погода в Качуге (Иркутская область, Россия) (91 км)
Погода в Солнечной (Иркутская область, Россия) (93 км)
Погода на Большом Ушканьем Острове (Бурятия, Россия) (120 км)
Погода в Жигалове (Иркутская область, Россия) (127 км)
Погода в Узуре (Иркутская область, Россия) (137 км)
Погода в Худжире (Иркутская область, Россия) (144 км)
Погода в Баргузинском Заповеднике (Бурятия, Россия) (163 км)
Погода в Усть-Баргузине (Бурятия, Россия) (176 км)
Погода в Даване (Бурятия, Россия) (182 км)

Пояснения к столбцам:

Ветер - указаны скорость ветра в м/с - средняя за 10 мин, порывы в срок и между сроками (в фигурных скобках) и направление, откуда дует ветер: С - северный, СВ - северо-восточный, В - восточный, ЮВ - юго-восточный, Ю - южный, ЮЗ - юго-западный, З - западный, СЗ - северо-западный.
Видимость - горизонтальная дальность видимости в метрах или километрах. При видимости от 1 до 10 км при отсутствии осадков обычно наблюдается дымка, при ухудшении видимости до 1 км и менее - туман. В сухую погоду видимость может ухудшаться дымом, пылью или мглою.
Явления - указаны атмосферные явления, наблюдавшиеся в срок или в последний час перед сроком; фигурными скобками обозначены явления, наблюдавшиеся между сроками (за 1-3 часа до срока); квадратными скобками обозначены град или гололедные отложения с указанием их диаметра в мм.
Облачность - указаны через наклонную черту общая и нижняя облачность в баллах и высота нижней границы облаков в метрах; квадратными скобками обозначены формы облаков: Ci - перистые, Cs - перисто-слоистые, Cc - перисто-кучевые, Ac - высококучевые, As - высокослоистые, Sc - слоисто-кучевые, Ns - слоисто-дождевые, Cu - кучевые, Cb - кучево-дождевые. Подробнее классификацию облаков см. в Атласе облаков (PDF).
T - Температура воздуха - температура, измеренная на высоте 2 м над землей.
Td - Температура точки росы - температура, при понижении до которой содержащийся в воздухе водяной пар достигнет насыщения.
f - Относительная влажность воздуха - влажноcть воздуха, измеренная на высоте 2 м над землей.
Te - Эффективная температура - температура, которую ощущает одетый по сезону человек в тени. Характеристика душности погоды. При расчете учитывается влияние влажности воздуха и скорости ветра на теплоощущения человека.
Tes - Эффективная температура на солнце - температура, которую ощущает человек, с поправкой на солнечный нагрев. Характеристика знойности погоды. Зависит от высоты солнца над горизонтом, облачности и скорости ветра. Ночью, в пасмурную погоду, а также при ветре 12 м/с и более поправка равна нулю.
P - Атмосферное давление - приведенное к уровню моря атмосферное давление.
Po - Атмосферное давление - измеренное на уровне метеостанции атмосферное давление.
Tmin - Минимальная температура - минимум температуры воздуха на высоте 2 м над землей.
Tmax - Максимальная температура - максимум температуры воздуха на высоте 2 м над землей.
R - Количество осадков - Количество выпавших осадков за период времени, мм. При наведении курсора мыши на число - период времени, за который выпало указанное количество осадков.
R24 - Количество осадков - Количество выпавших осадков за 24 часа, мм.
S - Снежный покров - Высота снежного покрова, см. При наведении курсора мыши на число - состояние снежного покрова и степень покрытия местности в баллах.